Weather History for Anniston, AL

Change the Weather History Date:

Monday, May 28, 2012

  Actual Average Record
Temperature  
Mean Temperature 80 °F 73 °F  
Max Temperature 90 °F 84 °F 96 °F (1962)
Min Temperature 69 °F 62 °F 42 °F (1961)
Cooling Degree Days 14    
Growing Degree Days 29 (Base 50)    
Moisture  
Dew Point 65 °F    
Average Humidity 63    
Maximum Humidity 84    
Minimum Humidity 41    
Precipitation  
Precipitation 0.00 in 0.13 in 1.54 in (1996)
Month to date precipitation 2.57 3.87  
Year to date precipitation 16.51 22.54  
Sea Level Pressure  
Sea Level Pressure 29.93 in    
Wind  
Wind Speed 6 mph (ENE)    
Max Wind Speed 16 mph    
Max Gust Speed 20 mph    
Visibility 10 miles    
Events      
T = Trace of Precipitation, MM = Missing Value Source: NWS Daily Summary

Daily Weather History Graph

Daily Weather History Graph

Search for Another Location

Airport:

Trip Planner

Search our weather history database for the weather conditions in past years. The results will help you decide how hot, cold, wet, or windy it might be!

Date:

Astronomy

May. 28, 2012 Rise Set
Actual Time 5:35 AM CDT 7:46 PM CDT
Civil Twilight 5:07 AM CDT 8:14 PM CDT
Nautical Twilight 4:32 AM CDT 8:49 PM CDT
Astronomical Twilight 3:55 AM CDT 9:26 PM CDT
Moon 12:31 PM CDT (5/28) 12:35 AM CDT (5/28)
Length of Visible Light 15h 07m
Length of Day
14h 11m
Waxing Crescent, 49% of the Moon is Illuminated
May 28
Waxing Crescent
May 28
First Quarter
Jun 4
Full
Jun 11
Last Quarter
Jun 19
New

Hourly Weather History & Observations

Time (CDT) Temp. Heat Index Dew Point Humidity Pressure Visibility Wind Dir Wind Speed Gust Speed Precip Events Conditions
12:53 AM 72.0 °F - 64.9 °F 78% 29.96 in 10.0 mi East 3.5 mph - N/A   Clear
1:53 AM 72.0 °F - 64.9 °F 78% 29.95 in 10.0 mi Calm Calm - N/A   Clear
2:53 AM 71.1 °F - 64.9 °F 81% 29.95 in 10.0 mi Calm Calm - N/A   Clear
3:53 AM 69.1 °F - 64.9 °F 87% 29.95 in 10.0 mi ENE 4.6 mph - N/A   Clear
4:53 AM 69.1 °F - 64.0 °F 84% 29.96 in 10.0 mi East 5.8 mph - N/A   Clear
5:53 AM 69.1 °F - 64.9 °F 87% 29.98 in 10.0 mi ENE 3.5 mph - N/A   Clear
6:53 AM 73.0 °F - 66.0 °F 79% 29.99 in 10.0 mi East 3.5 mph - N/A   Clear
7:53 AM 75.9 °F - 66.9 °F 74% 29.99 in 10.0 mi ENE 9.2 mph - N/A   Clear
8:53 AM 79.0 °F - 66.9 °F 66% 29.99 in 10.0 mi ENE 6.9 mph - N/A   Clear
9:53 AM 82.0 °F 84.1 °F 66.0 °F 58% 29.98 in 10.0 mi ENE 9.2 mph - N/A   Clear
10:53 AM 84.9 °F 86.6 °F 64.9 °F 51% 29.97 in 10.0 mi East 8.1 mph 16.1 mph N/A   Clear
11:53 AM 87.1 °F 89.2 °F 66.0 °F 49% 29.96 in 10.0 mi ENE 6.9 mph - N/A   Scattered Clouds
12:53 PM 87.1 °F 88.9 °F 64.9 °F 48% 29.94 in 10.0 mi East 6.9 mph - N/A   Partly Cloudy
1:53 PM 88.0 °F 89.6 °F 64.9 °F 46% 29.92 in 10.0 mi ESE 9.2 mph - N/A   Partly Cloudy
2:53 PM 89.1 °F 91.0 °F 64.9 °F 45% 29.89 in 10.0 mi East 12.7 mph 18.4 mph N/A   Clear
3:53 PM 89.1 °F 90.0 °F 63.0 °F 42% 29.88 in 10.0 mi East 10.4 mph - N/A   Clear
4:53 PM 89.1 °F 90.3 °F 64.0 °F 43% 29.87 in 10.0 mi ENE 8.1 mph - N/A   Clear
5:53 PM 89.1 °F 90.0 °F 63.0 °F 42% 29.86 in 10.0 mi East 8.1 mph - N/A   Clear
6:53 PM 87.1 °F 88.3 °F 64.0 °F 46% 29.86 in 10.0 mi ENE 8.1 mph - N/A   Clear
7:53 PM 84.0 °F 85.4 °F 64.0 °F 51% 29.87 in 10.0 mi East 4.6 mph - N/A   Clear
8:53 PM 82.0 °F 84.1 °F 66.0 °F 58% 29.89 in 10.0 mi East 5.8 mph - N/A   Mostly Cloudy
9:53 PM 79.0 °F - 66.0 °F 64% 29.90 in 10.0 mi East 3.5 mph - N/A   Partly Cloudy
10:53 PM 77.0 °F - 66.9 °F 71% 29.89 in 10.0 mi Calm Calm - N/A   Clear
11:53 PM 75.9 °F - 66.9 °F 74% 29.89 in 10.0 mi East 3.5 mph - N/A   Clear